Flag for Australia Weather past 2 weeks in Currie, Tasmania, Australia

Now
53 °F

Passing clouds.


Feels Like: 48 °F
Forecast: 53 / 55 °F
Wind: 16 mph from East

Location: King Island Airport

Current Time: Jul 7, 2015 at 12:49:50 PM

Latest Report: Jul 7, 2015 at 12:00 PM


Visibility: N/A

Pressure: 30.23 "Hg

Humidity: 78%

Dew point: 47 °F

Location of CurrieLocation

Historic Weather in Currie — Graph

°F

Currie temperature yesterday

Maximum temperature yesterday: 55 °F (at 12:00 AM)
Minimum temperature yesterday: 51 °F (at 7:00 PM)
Average temperature yesterday: 53 °F

Past Weeks' High & Low Weather Summary

 TemperatureHumidityPressure
High59 °F (Jun 27, 1:00 PM)98% (Jun 29, 9:00 AM)30.49 "Hg (Jun 29, 9:00 AM)
Low42 °F (Jul 2, 8:00 AM)54% (Jul 2, 11:00 AM)29.90 "Hg (Jul 6, 5:00 AM)
Average53 °F84%30.20 "Hg
* Reported Jun 22 11:00 AM — Jul 7 11:00 AM, Currie, Weather by CustomWeather, © 2015

Note: Actual official high and low records may vary slightly from our data, if they occured in-between our weather recording intervals... More about our weather records

Advertising

Currie weather history for previous 24 hours

 ConditionsComfort  
Time TempWeatherWind HumidityBarometerVisibility
11:00 AM
Tue, Jul 7
52 °FCool.15 mph82%30.24 "HgN/A
10:00 AM50 °FCool.13 mph86%30.23 "HgN/A
9:00 AM50 °FOvercast.12 mph91%30.21 "HgN/A
8:00 AM45 °FCool.8 mph90%30.19 "HgN/A
6:00 AM49 °FOvercast.14 mph89%30.15 "HgN/A
5:00 AM49 °FCool.17 mph90%30.12 "HgN/A
4:00 AM50 °FCool.15 mph93%30.11 "HgN/A
3:00 AM50 °FOvercast.15 mph95%30.11 "HgN/A
2:00 AM49 °FCool.16 mph97%30.09 "HgN/A
1:00 AM50 °FCool.17 mph98%30.08 "HgN/A
12:00 AM50 °FLow clouds.17 mph98%30.07 "Hg2 mi
11:00 PM
Mon, Jul 6
51 °FCool.17 mph98%30.06 "HgN/A
10:00 PM51 °FCool.13 mph98%30.05 "HgN/A
9:00 PM51 °FOvercast.7 mph98%30.03 "HgN/A
8:00 PM51 °FCool.6 mph98%30.01 "HgN/A
7:00 PM51 °FCool.5 mph97%29.99 "HgN/A
6:00 PM51 °FOvercast.1 mph96%29.97 "HgN/A
5:00 PM53 °FCool.6 mph94%29.95 "HgN/A
4:00 PM54 °FCool.7 mph90%29.94 "HgN/A
3:00 PM54 °FOvercast.8 mph88%29.93 "HgN/A
12:00 PM54 °FOvercast.9 mph90%29.94 "HgN/A
Weather by CustomWeather, © 2015

See weather overviewHow to use our weather pages